Time,TemperatureF,DewpointF,PressureIn,WindDirection,WindDirectionDegrees,WindSpeedMPH,WindSpeedGustMPH,Humidity,HourlyPrecipIn,Conditions,Clouds,dailyrainin,SoftwareType,DateUTC
2013-03-10 00:00:00,28.2,22.8,30.30,North,8,0.0,0.0,80,0.00,,,0.00,LWC V2.00 B2112,2013-03-10 05:00:00,
2013-03-10 00:05:00,28.1,23.0,30.30,North,8,0.0,0.0,81,0.00,,,0.00,LWC V2.00 B2112,2013-03-10 05:05:00,
2013-03-10 00:10:00,27.9,22.8,30.30,North,8,0.0,0.0,81,0.00,,,0.00,LWC V2.00 B2112,2013-03-10 05:10:00,
2013-03-10 00:15:00,27.9,22.8,30.30,North,8,0.0,0.0,81,0.00,,,0.00,LWC V2.00 B2112,2013-03-10 05:15:00,
2013-03-10 00:20:00,27.8,22.7,30.30,North,8,0.0,0.0,81,0.00,,,0.00,LWC V2.00 B2112,2013-03-10 05:20:00,
2013-03-10 00:25:00,27.8,23.0,30.30,North,8,0.0,0.0,82,0.00,,,0.00,LWC V2.00 B2112,2013-03-10 05:25:00,
2013-03-10 00:30:00,27.8,23.0,30.31,North,8,0.0,0.0,82,0.00,,,0.00,LWC V2.00 B2112,2013-03-10 05:30:00,
2013-03-10 00:35:00,27.6,23.1,30.31,North,8,0.0,0.0,83,0.00,,,0.00,LWC V2.00 B2112,2013-03-10 05:35:00,
2013-03-10 00:40:00,27.6,23.1,30.31,North,8,0.0,0.0,83,0.00,,,0.00,LWC V2.00 B2112,2013-03-10 05:40:00,
2013-03-10 00:45:00,27.6,23.1,30.31,North,8,0.0,0.0,83,0.00,,,0.00,LWC V2.00 B2112,2013-03-10 05:45:00,
2013-03-10 00:50:00,27.5,23.3,30.31,North,8,0.0,0.0,84,0.00,,,0.00,LWC V2.00 B2112,2013-03-10 05:50:00,
2013-03-10 00:55:00,27.5,23.3,30.31,North,8,0.0,0.0,84,0.00,,,0.00,LWC V2.00 B2112,2013-03-10 05:55:00,
2013-03-10 01:00:00,27.5,23.3,30.32,North,8,0.0,0.0,84,0.00,,,0.00,LWC V2.00 B2112,2013-03-10 06:00:00,
2013-03-10 01:05:00,27.3,23.1,30.32,North,8,0.0,0.0,84,0.00,,,0.00,LWC V2.00 B2112,2013-03-10 06:05:00,
2013-03-10 01:10:00,27.2,23.3,30.32,North,8,0.0,0.0,85,0.00,,,0.00,LWC V2.00 B2112,2013-03-10 06:10:00,
2013-03-10 01:15:00,27.0,23.1,30.32,North,8,0.0,0.0,85,0.00,,,0.00,LWC V2.00 B2112,2013-03-10 06:15:00,
2013-03-10 01:20:00,26.9,23.0,30.32,North,8,0.0,0.0,85,0.00,,,0.00,LWC V2.00 B2112,2013-03-10 06:20:00,
2013-03-10 01:25:00,26.7,22.8,30.32,North,8,0.0,0.0,85,0.00,,,0.00,LWC V2.00 B2112,2013-03-10 06:25:00,
2013-03-10 01:30:00,26.7,22.8,30.32,North,8,0.0,0.0,85,0.00,,,0.00,LWC V2.00 B2112,2013-03-10 06:30:00,
2013-03-10 01:35:00,26.7,22.8,30.32,North,8,0.0,0.0,85,0.00,,,0.00,LWC V2.00 B2112,2013-03-10 06:35:00,
2013-03-10 01:40:00,26.6,22.7,30.32,North,8,0.0,0.0,85,0.00,,,0.00,LWC V2.00 B2112,2013-03-10 06:40:00,
2013-03-10 01:45:00,26.4,22.5,30.32,North,8,0.0,0.0,85,0.00,,,0.00,LWC V2.00 B2112,2013-03-10 06:45:00,
2013-03-10 01:50:00,26.4,22.8,30.32,North,8,0.0,0.0,86,0.00,,,0.00,LWC V2.00 B2112,2013-03-10 06:50:00,
2013-03-10 01:55:00,26.1,22.2,30.32,North,8,0.0,0.0,85,0.00,,,0.00,LWC V2.00 B2112,2013-03-10 06:55:00,
2013-03-10 03:00:00,26.1,22.5,30.32,North,8,0.0,0.0,86,0.00,,,0.00,LWC V2.00 B2112,2013-03-10 07:00:00,
2013-03-10 03:05:00,26.0,22.4,30.32,North,8,0.0,0.0,86,0.00,,,0.00,LWC V2.00 B2112,2013-03-10 07:05:00,
2013-03-10 03:10:00,25.8,22.2,30.32,North,8,0.0,0.0,86,0.00,,,0.00,LWC V2.00 B2112,2013-03-10 07:10:00,
2013-03-10 03:15:00,25.7,22.1,30.32,North,8,0.0,0.0,86,0.00,,,0.00,LWC V2.00 B2112,2013-03-10 07:15:00,
2013-03-10 03:20:00,25.6,22.3,30.32,North,8,0.0,0.0,87,0.00,,,0.00,LWC V2.00 B2112,2013-03-10 07:20:00,
2013-03-10 03:25:00,25.7,22.4,30.32,North,8,0.0,0.0,87,0.00,,,0.00,LWC V2.00 B2112,2013-03-10 07:25:00,
2013-03-10 03:30:00,25.8,22.5,30.32,North,8,0.0,0.0,87,0.00,,,0.00,LWC V2.00 B2112,2013-03-10 07:30:00,
2013-03-10 03:35:00,25.7,22.4,30.32,North,8,0.0,0.0,87,0.00,,,0.00,LWC V2.00 B2112,2013-03-10 07:35:00,
2013-03-10 03:40:00,25.6,22.3,30.32,North,8,0.0,0.0,87,0.00,,,0.00,LWC V2.00 B2112,2013-03-10 07:40:00,
2013-03-10 03:45:00,25.6,22.3,30.32,North,8,0.0,0.0,87,0.00,,,0.00,LWC V2.00 B2112,2013-03-10 07:45:00,
2013-03-10 03:50:00,25.4,22.1,30.32,North,8,0.0,0.0,87,0.00,,,0.00,LWC V2.00 B2112,2013-03-10 07:50:00,
2013-03-10 03:55:00,25.3,22.0,30.32,North,8,0.0,0.0,87,0.00,,,0.00,LWC V2.00 B2112,2013-03-10 07:55:00,
2013-03-10 04:00:00,25.3,22.0,30.32,North,8,0.0,0.0,87,0.00,,,0.00,LWC V2.00 B2112,2013-03-10 08:00:00,
2013-03-10 04:05:00,25.3,22.3,30.32,North,8,0.0,0.0,88,0.00,,,0.00,LWC V2.00 B2112,2013-03-10 08:05:00,
2013-03-10 04:10:00,25.1,22.1,30.32,North,8,0.0,0.0,88,0.00,,,0.00,LWC V2.00 B2112,2013-03-10 08:10:00,
2013-03-10 04:15:00,25.1,22.1,30.32,North,8,0.0,0.0,88,0.00,,,0.00,LWC V2.00 B2112,2013-03-10 08:15:00,
2013-03-10 04:20:00,25.0,22.0,30.32,North,8,0.0,0.0,88,0.00,,,0.00,LWC V2.00 B2112,2013-03-10 08:20:00,
2013-03-10 04:25:00,25.0,22.0,30.32,North,8,0.0,0.0,88,0.00,,,0.00,LWC V2.00 B2112,2013-03-10 08:25:00,
2013-03-10 04:30:00,24.8,21.8,30.32,North,8,0.0,0.0,88,0.00,,,0.00,LWC V2.00 B2112,2013-03-10 08:30:00,
2013-03-10 04:35:00,24.8,22.0,30.32,North,8,0.0,0.0,89,0.00,,,0.00,LWC V2.00 B2112,2013-03-10 08:35:00,
2013-03-10 04:40:00,24.8,22.0,30.32,North,8,0.0,0.0,89,0.00,,,0.00,LWC V2.00 B2112,2013-03-10 08:40:00,
2013-03-10 04:45:00,24.8,22.0,30.33,North,8,0.0,0.0,89,0.00,,,0.00,LWC V2.00 B2112,2013-03-10 08:45:00,
2013-03-10 04:50:00,24.8,22.0,30.33,North,8,0.0,0.0,89,0.00,,,0.00,LWC V2.00 B2112,2013-03-10 08:50:00,
2013-03-10 04:55:00,25.0,22.2,30.33,North,8,0.0,0.0,89,0.00,,,0.00,LWC V2.00 B2112,2013-03-10 08:55:00,
2013-03-10 05:00:00,24.8,22.0,30.33,North,8,0.0,0.0,89,0.00,,,0.00,LWC V2.00 B2112,2013-03-10 09:00:00,
2013-03-10 05:05:00,24.7,21.9,30.33,North,8,0.0,0.0,89,0.00,,,0.00,LWC V2.00 B2112,2013-03-10 09:05:00,
2013-03-10 05:10:00,24.5,21.7,30.33,North,8,0.0,0.0,89,0.00,,,0.00,LWC V2.00 B2112,2013-03-10 09:10:00,
2013-03-10 05:15:00,24.4,21.6,30.32,North,8,0.0,0.0,89,0.00,,,0.00,LWC V2.00 B2112,2013-03-10 09:15:00,
2013-03-10 05:20:00,24.4,21.6,30.32,North,8,0.0,0.0,89,0.00,,,0.00,LWC V2.00 B2112,2013-03-10 09:20:00,
2013-03-10 05:25:00,24.2,21.4,30.32,North,8,0.0,0.0,89,0.00,,,0.00,LWC V2.00 B2112,2013-03-10 09:25:00,
2013-03-10 05:30:00,24.2,21.4,30.33,North,8,0.0,0.0,89,0.00,,,0.00,LWC V2.00 B2112,2013-03-10 09:30:00,
2013-03-10 05:35:00,24.1,21.3,30.33,North,8,0.0,0.0,89,0.00,,,0.00,LWC V2.00 B2112,2013-03-10 09:35:00,
2013-03-10 05:40:00,23.9,21.4,30.33,North,8,0.0,0.0,90,0.00,,,0.00,LWC V2.00 B2112,2013-03-10 09:40:00,
2013-03-10 05:45:00,23.8,21.3,30.33,North,8,0.0,0.0,90,0.00,,,0.00,LWC V2.00 B2112,2013-03-10 09:45:00,
2013-03-10 05:50:00,23.8,21.3,30.33,North,8,0.0,0.0,90,0.00,,,0.00,LWC V2.00 B2112,2013-03-10 09:50:00,
2013-03-10 05:55:00,23.8,21.3,30.33,North,8,0.0,0.0,90,0.00,,,0.00,LWC V2.00 B2112,2013-03-10 09:55:00,
2013-03-10 06:00:00,23.8,21.3,30.34,North,8,0.0,0.0,90,0.00,,,0.00,LWC V2.00 B2112,2013-03-10 10:00:00,
2013-03-10 06:05:00,23.6,21.1,30.34,North,8,0.0,0.0,90,0.00,,,0.00,LWC V2.00 B2112,2013-03-10 10:05:00,
2013-03-10 06:10:00,23.6,21.1,30.34,North,8,0.0,0.0,90,0.00,,,0.00,LWC V2.00 B2112,2013-03-10 10:10:00,
2013-03-10 06:15:00,23.6,21.1,30.34,North,8,0.0,0.0,90,0.00,,,0.00,LWC V2.00 B2112,2013-03-10 10:15:00,
2013-03-10 06:20:00,23.5,21.0,30.34,North,8,0.0,0.0,90,0.00,,,0.00,LWC V2.00 B2112,2013-03-10 10:20:00,
2013-03-10 06:25:00,23.3,20.8,30.34,North,8,0.0,0.0,90,0.00,,,0.00,LWC V2.00 B2112,2013-03-10 10:25:00,
2013-03-10 06:30:00,23.3,20.8,30.34,North,8,0.0,0.0,90,0.00,,,0.00,LWC V2.00 B2112,2013-03-10 10:30:00,
2013-03-10 06:35:00,23.3,21.1,30.34,North,8,0.0,0.0,91,0.00,,,0.00,LWC V2.00 B2112,2013-03-10 10:35:00,
2013-03-10 06:40:00,23.3,21.1,30.34,North,8,0.0,0.0,91,0.00,,,0.00,LWC V2.00 B2112,2013-03-10 10:40:00,
2013-03-10 06:45:00,23.2,21.0,30.35,North,8,0.0,0.0,91,0.00,,,0.00,LWC V2.00 B2112,2013-03-10 10:45:00,
2013-03-10 06:50:00,23.2,21.0,30.35,North,8,0.0,0.0,91,0.00,,,0.00,LWC V2.00 B2112,2013-03-10 10:50:00,
2013-03-10 06:55:00,23.2,21.0,30.35,North,8,0.0,0.0,91,0.00,,,0.00,LWC V2.00 B2112,2013-03-10 10:55:00,
2013-03-10 07:00:00,23.2,21.0,30.36,North,8,0.0,0.0,91,0.00,,,0.00,LWC V2.00 B2112,2013-03-10 11:00:00,
2013-03-10 07:05:00,23.0,20.8,30.36,North,8,0.0,0.0,91,0.00,,,0.00,LWC V2.00 B2112,2013-03-10 11:05:00,
2013-03-10 07:10:00,23.0,20.8,30.36,North,8,0.0,0.0,91,0.00,,,0.00,LWC V2.00 B2112,2013-03-10 11:10:00,
2013-03-10 07:15:00,23.0,20.8,30.36,North,8,0.0,0.0,91,0.00,,,0.00,LWC V2.00 B2112,2013-03-10 11:15:00,
2013-03-10 07:20:00,23.2,21.0,30.36,North,8,0.0,0.0,91,0.00,,,0.00,LWC V2.00 B2112,2013-03-10 11:20:00,
2013-03-10 07:25:00,23.2,21.0,30.36,North,8,0.0,0.0,91,0.00,,,0.00,LWC V2.00 B2112,2013-03-10 11:25:00,
2013-03-10 07:30:00,23.2,21.0,30.36,North,8,0.0,0.0,91,0.00,,,0.00,LWC V2.00 B2112,2013-03-10 11:30:00,
2013-03-10 07:35:00,23.0,20.8,30.36,North,8,0.0,0.0,91,0.00,,,0.00,LWC V2.00 B2112,2013-03-10 11:35:00,
2013-03-10 07:40:00,23.0,20.8,30.36,North,8,0.0,0.0,91,0.00,,,0.00,LWC V2.00 B2112,2013-03-10 11:40:00,
2013-03-10 07:45:00,23.0,20.8,30.36,North,8,1.0,1.0,91,0.00,,,0.00,LWC V2.00 B2112,2013-03-10 11:45:00,
2013-03-10 07:50:00,23.2,21.2,30.36,North,8,0.0,0.0,92,0.00,,,0.00,LWC V2.00 B2112,2013-03-10 11:50:00,
2013-03-10 07:55:00,23.3,21.3,30.36,North,8,0.0,0.0,92,0.00,,,0.00,LWC V2.00 B2112,2013-03-10 11:55:00,
2013-03-10 08:00:00,23.5,21.5,30.36,North,8,0.0,0.0,92,0.00,,,0.00,LWC V2.00 B2112,2013-03-10 12:00:00,
2013-03-10 08:05:00,23.9,21.9,30.36,North,8,0.0,1.0,92,0.00,,,0.00,LWC V2.00 B2112,2013-03-10 12:05:00,
2013-03-10 08:10:00,24.4,22.4,30.36,North,8,0.0,0.0,92,0.00,,,0.00,LWC V2.00 B2112,2013-03-10 12:10:00,
2013-03-10 08:15:00,24.7,22.7,30.37,North,8,0.0,0.0,92,0.00,,,0.00,LWC V2.00 B2112,2013-03-10 12:15:00,
2013-03-10 08:20:00,25.1,23.1,30.37,North,8,0.0,0.0,92,0.00,,,0.00,LWC V2.00 B2112,2013-03-10 12:20:00,
2013-03-10 08:25:00,25.6,23.6,30.37,North,8,0.0,0.0,92,0.00,,,0.00,LWC V2.00 B2112,2013-03-10 12:25:00,
2013-03-10 08:30:00,26.1,24.1,30.36,North,8,0.0,0.0,92,0.00,,,0.00,LWC V2.00 B2112,2013-03-10 12:30:00,
2013-03-10 08:35:00,26.6,24.3,30.36,North,8,0.0,0.0,91,0.00,,,0.00,LWC V2.00 B2112,2013-03-10 12:35:00,
2013-03-10 08:40:00,27.0,24.7,30.36,North,8,0.0,0.0,91,0.00,,,0.00,LWC V2.00 B2112,2013-03-10 12:40:00,
2013-03-10 08:45:00,27.5,25.0,30.37,North,8,0.0,0.0,90,0.00,,,0.00,LWC V2.00 B2112,2013-03-10 12:45:00,
2013-03-10 08:50:00,27.8,25.3,30.37,North,8,0.0,0.0,90,0.00,,,0.00,LWC V2.00 B2112,2013-03-10 12:50:00,
2013-03-10 08:55:00,28.1,25.3,30.37,North,8,1.0,1.0,89,0.00,,,0.00,LWC V2.00 B2112,2013-03-10 12:55:00,
2013-03-10 09:00:00,28.4,25.3,30.37,North,8,0.0,0.0,88,0.00,,,0.00,LWC V2.00 B2112,2013-03-10 13:00:00,
2013-03-10 09:05:00,29.0,25.6,30.37,North,8,0.0,0.0,87,0.00,,,0.00,LWC V2.00 B2112,2013-03-10 13:05:00,
2013-03-10 09:10:00,29.5,25.8,30.37,North,8,0.0,0.0,86,0.00,,,0.00,LWC V2.00 B2112,2013-03-10 13:10:00,
2013-03-10 09:15:00,30.0,25.8,30.37,North,8,1.0,3.0,84,0.00,,,0.00,LWC V2.00 B2112,2013-03-10 13:15:00,
2013-03-10 09:20:00,30.6,25.8,30.37,North,8,0.0,1.0,82,0.00,,,0.00,LWC V2.00 B2112,2013-03-10 13:20:00,
2013-03-10 09:25:00,31.0,26.2,30.37,North,8,0.0,2.0,82,0.00,,,0.00,LWC V2.00 B2112,2013-03-10 13:25:00,
2013-03-10 09:30:00,31.5,26.4,30.37,North,8,1.0,2.0,81,0.00,,,0.00,LWC V2.00 B2112,2013-03-10 13:30:00,
2013-03-10 09:35:00,31.8,26.0,30.37,North,8,0.0,1.0,79,0.00,,,0.00,LWC V2.00 B2112,2013-03-10 13:35:00,
2013-03-10 09:40:00,32.1,26.3,30.37,North,8,0.0,0.0,79,0.00,,,0.00,LWC V2.00 B2112,2013-03-10 13:40:00,
2013-03-10 09:45:00,32.7,26.6,30.37,North,8,0.0,0.0,78,0.00,,,0.00,LWC V2.00 B2112,2013-03-10 13:45:00,
2013-03-10 09:50:00,33.4,26.7,30.37,North,8,0.0,0.0,76,0.00,,,0.00,LWC V2.00 B2112,2013-03-10 13:50:00,
2013-03-10 09:55:00,34.1,26.7,30.37,North,8,0.0,0.0,74,0.00,,,0.00,LWC V2.00 B2112,2013-03-10 13:55:00,
2013-03-10 10:00:00,34.6,26.9,30.36,North,8,0.0,2.0,73,0.00,,,0.00,LWC V2.00 B2112,2013-03-10 14:00:00,
2013-03-10 10:05:00,35.2,27.1,30.36,North,8,0.0,0.0,72,0.00,,,0.00,LWC V2.00 B2112,2013-03-10 14:05:00,
2013-03-10 10:10:00,35.8,27.3,30.36,North,8,0.0,1.0,71,0.00,,,0.00,LWC V2.00 B2112,2013-03-10 14:10:00,
2013-03-10 10:15:00,36.2,27.0,30.36,North,8,0.0,0.0,69,0.00,,,0.00,LWC V2.00 B2112,2013-03-10 14:15:00,
2013-03-10 10:20:00,36.8,27.6,30.36,North,8,0.0,0.0,69,0.00,,,0.00,LWC V2.00 B2112,2013-03-10 14:20:00,
2013-03-10 10:25:00,37.5,27.9,30.36,North,8,0.0,0.0,68,0.00,,,0.00,LWC V2.00 B2112,2013-03-10 14:25:00,
2013-03-10 10:30:00,37.9,27.6,30.36,North,8,0.0,1.0,66,0.00,,,0.00,LWC V2.00 B2112,2013-03-10 14:30:00,
2013-03-10 10:35:00,38.3,28.0,30.36,North,8,0.0,1.0,66,0.00,,,0.00,LWC V2.00 B2112,2013-03-10 14:35:00,
2013-03-10 10:40:00,39.1,28.7,30.36,North,8,0.0,0.0,66,0.00,,,0.00,LWC V2.00 B2112,2013-03-10 14:40:00,
2013-03-10 10:45:00,39.6,29.6,30.34,North,8,0.0,0.0,67,0.00,,,0.00,LWC V2.00 B2112,2013-03-10 14:45:00,
2013-03-10 10:50:00,40.2,29.4,30.34,North,8,2.0,2.0,65,0.00,,,0.00,LWC V2.00 B2112,2013-03-10 14:50:00,
2013-03-10 10:55:00,40.2,29.0,30.34,North,8,0.0,1.0,64,0.00,,,0.00,LWC V2.00 B2112,2013-03-10 14:55:00,
2013-03-10 11:00:00,40.9,29.7,30.34,North,8,0.0,2.0,64,0.00,,,0.00,LWC V2.00 B2112,2013-03-10 15:00:00,
2013-03-10 11:05:00,41.3,29.3,30.34,North,8,2.0,2.0,62,0.00,,,0.00,LWC V2.00 B2112,2013-03-10 15:05:00,
2013-03-10 11:10:00,41.8,29.7,30.34,WNW,287,1.0,3.0,62,0.00,,,0.00,LWC V2.00 B2112,2013-03-10 15:10:00,
2013-03-10 11:15:00,41.8,29.4,30.33,WNW,287,0.0,1.0,61,0.00,,,0.00,LWC V2.00 B2112,2013-03-10 15:15:00,
2013-03-10 11:20:00,42.3,30.2,30.33,WNW,287,0.0,0.0,62,0.00,,,0.00,LWC V2.00 B2112,2013-03-10 15:20:00,
2013-03-10 11:25:00,42.9,29.6,30.33,WNW,287,0.0,2.0,59,0.00,,,0.00,LWC V2.00 B2112,2013-03-10 15:25:00,
2013-03-10 11:30:00,43.1,29.8,30.33,WNW,288,2.0,3.0,59,0.00,,,0.00,LWC V2.00 B2112,2013-03-10 15:30:00,
2013-03-10 11:35:00,43.1,29.8,30.33,WNW,288,1.0,1.0,59,0.00,,,0.00,LWC V2.00 B2112,2013-03-10 15:35:00,
2013-03-10 11:40:00,43.2,29.4,30.33,WNW,296,1.0,3.0,58,0.00,,,0.00,LWC V2.00 B2112,2013-03-10 15:40:00,
2013-03-10 11:45:00,43.6,29.4,30.32,WNW,296,1.0,1.0,57,0.00,,,0.00,LWC V2.00 B2112,2013-03-10 15:45:00,
2013-03-10 11:50:00,44.1,29.9,30.32,WSW,246,3.0,3.0,57,0.00,,,0.00,LWC V2.00 B2112,2013-03-10 15:50:00,
2013-03-10 11:55:00,44.5,29.8,30.32,WNW,294,1.0,5.0,56,0.00,,,0.00,LWC V2.00 B2112,2013-03-10 15:55:00,
2013-03-10 12:00:00,44.5,29.4,30.32,WNW,294,0.0,0.0,55,0.00,,,0.00,LWC V2.00 B2112,2013-03-10 16:00:00,
2013-03-10 12:05:00,45.2,29.6,30.32,WNW,294,3.0,3.0,54,0.00,,,0.00,LWC V2.00 B2112,2013-03-10 16:05:00,
2013-03-10 12:10:00,45.7,29.6,30.32,SSE,158,0.0,0.0,53,0.00,,,0.00,LWC V2.00 B2112,2013-03-10 16:10:00,
2013-03-10 12:15:00,46.0,29.4,30.32,SSW,199,1.0,1.0,52,0.00,,,0.00,LWC V2.00 B2112,2013-03-10 16:15:00,
2013-03-10 12:20:00,45.7,29.1,30.32,North,0,1.0,2.0,52,0.00,,,0.00,LWC V2.00 B2112,2013-03-10 16:20:00,
2013-03-10 12:25:00,45.5,29.4,30.32,SE,124,0.0,3.0,53,0.00,,,0.00,LWC V2.00 B2112,2013-03-10 16:25:00,
2013-03-10 12:30:00,46.0,28.9,30.31,SE,134,2.0,5.0,51,0.00,,,0.00,LWC V2.00 B2112,2013-03-10 16:30:00,
2013-03-10 12:35:00,46.2,28.6,30.31,SSE,157,2.0,2.0,50,0.00,,,0.00,LWC V2.00 B2112,2013-03-10 16:35:00,
2013-03-10 12:40:00,46.2,29.1,30.31,SSE,147,2.0,5.0,51,0.00,,,0.00,LWC V2.00 B2112,2013-03-10 16:40:00,
2013-03-10 12:45:00,46.2,29.1,30.31,South,175,3.0,3.0,51,0.00,,,0.00,LWC V2.00 B2112,2013-03-10 16:45:00,
2013-03-10 12:50:00,46.8,29.6,30.31,South,175,1.0,3.0,51,0.00,,,0.00,LWC V2.00 B2112,2013-03-10 16:50:00,
2013-03-10 12:55:00,47.0,29.3,30.31,SSE,162,3.0,5.0,50,0.00,,,0.00,LWC V2.00 B2112,2013-03-10 16:55:00,
2013-03-10 13:00:00,47.1,29.4,30.31,SSE,155,2.0,5.0,50,0.00,,,0.00,LWC V2.00 B2112,2013-03-10 17:00:00,
2013-03-10 13:05:00,47.6,29.4,30.31,SE,144,1.0,5.0,49,0.00,,,0.00,LWC V2.00 B2112,2013-03-10 17:05:00,
2013-03-10 13:10:00,47.9,29.7,30.31,SSE,151,2.0,3.0,49,0.00,,,0.00,LWC V2.00 B2112,2013-03-10 17:10:00,
2013-03-10 13:15:00,47.9,29.7,30.30,SSE,152,1.0,5.0,49,0.00,,,0.00,LWC V2.00 B2112,2013-03-10 17:15:00,
2013-03-10 13:20:00,48.3,30.0,30.30,SSE,152,1.0,2.0,49,0.00,,,0.00,LWC V2.00 B2112,2013-03-10 17:20:00,
2013-03-10 13:25:00,47.7,29.5,30.30,SSE,161,2.0,6.0,49,0.00,,,0.00,LWC V2.00 B2112,2013-03-10 17:25:00,
2013-03-10 13:30:00,47.6,29.4,30.29,SSE,151,2.0,5.0,49,0.00,,,0.00,LWC V2.00 B2112,2013-03-10 17:30:00,
2013-03-10 13:35:00,48.2,30.4,30.29,SSE,164,3.0,4.0,50,0.00,,,0.00,LWC V2.00 B2112,2013-03-10 17:35:00,
2013-03-10 13:40:00,48.2,29.9,30.29,SSE,151,2.0,4.0,49,0.00,,,0.00,LWC V2.00 B2112,2013-03-10 17:40:00,
2013-03-10 13:45:00,48.5,29.7,30.28,SSW,196,0.0,6.0,48,0.00,,,0.00,LWC V2.00 B2112,2013-03-10 17:45:00,
2013-03-10 13:50:00,48.6,29.8,30.28,South,176,3.0,4.0,48,0.00,,,0.00,LWC V2.00 B2112,2013-03-10 17:50:00,
2013-03-10 13:55:00,48.8,30.0,30.28,SE,133,2.0,6.0,48,0.00,,,0.00,LWC V2.00 B2112,2013-03-10 17:55:00,
2013-03-10 14:00:00,48.5,29.7,30.28,South,176,2.0,5.0,48,0.00,,,0.00,LWC V2.00 B2112,2013-03-10 18:00:00,
2013-03-10 14:05:00,48.9,29.6,30.28,SSE,151,5.0,6.0,47,0.00,,,0.00,LWC V2.00 B2112,2013-03-10 18:05:00,
2013-03-10 14:15:00,49.1,29.2,30.26,South,185,3.0,5.0,46,0.00,,,0.00,LWC V2.00 B2112,2013-03-10 18:15:00,
2013-03-10 14:20:00,49.5,29.6,30.26,SSW,196,1.0,4.0,46,0.00,,,0.00,LWC V2.00 B2112,2013-03-10 18:20:00,
2013-03-10 14:25:00,49.6,29.7,30.26,SSE,164,2.0,4.0,46,0.00,,,0.00,LWC V2.00 B2112,2013-03-10 18:25:00,
2013-03-10 14:30:00,49.9,29.4,30.26,South,184,5.0,6.0,45,0.00,,,0.00,LWC V2.00 B2112,2013-03-10 18:30:00,
2013-03-10 14:35:00,50.2,29.7,30.26,South,184,2.0,6.0,45,0.00,,,0.00,LWC V2.00 B2112,2013-03-10 18:35:00,
2013-03-10 14:40:00,50.2,29.7,30.26,SE,145,3.0,5.0,45,0.00,,,0.00,LWC V2.00 B2112,2013-03-10 18:40:00,
2013-03-10 14:45:00,50.5,29.4,30.26,SSW,203,0.0,3.0,44,0.00,,,0.00,LWC V2.00 B2112,2013-03-10 18:45:00,
2013-03-10 14:50:00,50.5,28.8,30.26,South,188,5.0,6.0,43,0.00,,,0.00,LWC V2.00 B2112,2013-03-10 18:50:00,
2013-03-10 14:55:00,50.2,28.0,30.26,SSE,154,4.0,7.0,42,0.00,,,0.00,LWC V2.00 B2112,2013-03-10 18:55:00,
2013-03-10 15:00:00,50.1,27.9,30.25,SSE,162,2.0,7.0,42,0.00,,,0.00,LWC V2.00 B2112,2013-03-10 19:00:00,
2013-03-10 15:05:00,50.4,27.6,30.25,SSW,192,3.0,7.0,41,0.00,,,0.00,LWC V2.00 B2112,2013-03-10 19:05:00,
2013-03-10 15:10:00,50.5,27.7,30.25,South,178,6.0,7.0,41,0.00,,,0.00,LWC V2.00 B2112,2013-03-10 19:10:00,
2013-03-10 15:15:00,50.1,26.7,30.25,SSE,152,6.0,6.0,40,0.00,,,0.00,LWC V2.00 B2112,2013-03-10 19:15:00,
2013-03-10 15:20:00,50.1,27.9,30.25,SSE,157,5.0,6.0,42,0.00,,,0.00,LWC V2.00 B2112,2013-03-10 19:20:00,
2013-03-10 15:25:00,50.2,28.6,30.25,SSE,155,3.0,7.0,43,0.00,,,0.00,LWC V2.00 B2112,2013-03-10 19:25:00,
2013-03-10 15:30:00,50.5,28.3,30.25,South,184,6.0,7.0,42,0.00,,,0.00,LWC V2.00 B2112,2013-03-10 19:30:00,
2013-03-10 15:35:00,50.7,28.5,30.25,South,188,2.0,6.0,42,0.00,,,0.00,LWC V2.00 B2112,2013-03-10 19:35:00,
2013-03-10 15:40:00,51.0,28.7,30.25,South,189,3.0,6.0,42,0.00,,,0.00,LWC V2.00 B2112,2013-03-10 19:40:00,
2013-03-10 15:45:00,51.3,28.4,30.24,SSE,157,6.0,8.0,41,0.00,,,0.00,LWC V2.00 B2112,2013-03-10 19:45:00,
2013-03-10 15:50:00,51.4,28.5,30.24,South,188,2.0,4.0,41,0.00,,,0.00,LWC V2.00 B2112,2013-03-10 19:50:00,
2013-03-10 15:55:00,51.7,28.2,30.24,SSE,152,2.0,5.0,40,0.00,,,0.00,LWC V2.00 B2112,2013-03-10 19:55:00,
2013-03-10 16:00:00,51.4,27.9,30.24,South,174,3.0,5.0,40,0.00,,,0.00,LWC V2.00 B2112,2013-03-10 20:00:00,
2013-03-10 16:05:00,51.3,27.2,30.24,South,188,5.0,7.0,39,0.00,,,0.00,LWC V2.00 B2112,2013-03-10 20:05:00,
2013-03-10 16:10:00,51.3,27.2,30.24,SSE,165,2.0,7.0,39,0.00,,,0.00,LWC V2.00 B2112,2013-03-10 20:10:00,
2013-03-10 16:15:00,51.4,27.3,30.23,SSW,192,6.0,6.0,39,0.00,,,0.00,LWC V2.00 B2112,2013-03-10 20:15:00,
2013-03-10 16:20:00,51.4,27.9,30.23,South,178,6.0,7.0,40,0.00,,,0.00,LWC V2.00 B2112,2013-03-10 20:20:00,
2013-03-10 16:25:00,51.4,28.5,30.23,South,181,3.0,4.0,41,0.00,,,0.00,LWC V2.00 B2112,2013-03-10 20:25:00,
2013-03-10 16:30:00,51.6,28.1,30.23,SSE,157,5.0,7.0,40,0.00,,,0.00,LWC V2.00 B2112,2013-03-10 20:30:00,
2013-03-10 16:35:00,51.6,28.1,30.23,South,185,5.0,6.0,40,0.00,,,0.00,LWC V2.00 B2112,2013-03-10 20:35:00,
2013-03-10 16:40:00,51.6,28.1,30.23,South,189,3.0,7.0,40,0.00,,,0.00,LWC V2.00 B2112,2013-03-10 20:40:00,
2013-03-10 16:45:00,51.4,28.5,30.23,South,169,3.0,6.0,41,0.00,,,0.00,LWC V2.00 B2112,2013-03-10 20:45:00,
2013-03-10 16:50:00,51.1,28.2,30.23,South,175,6.0,7.0,41,0.00,,,0.00,LWC V2.00 B2112,2013-03-10 20:50:00,
2013-03-10 16:55:00,51.0,28.7,30.23,South,171,5.0,7.0,42,0.00,,,0.00,LWC V2.00 B2112,2013-03-10 20:55:00,
2013-03-10 17:00:00,50.7,27.9,30.23,South,176,4.0,6.0,41,0.00,,,0.00,LWC V2.00 B2112,2013-03-10 21:00:00,
2013-03-10 17:05:00,50.2,26.8,30.23,SE,143,4.0,6.0,40,0.00,,,0.00,LWC V2.00 B2112,2013-03-10 21:05:00,
2013-03-10 17:10:00,49.9,27.1,30.23,South,181,2.0,5.0,41,0.00,,,0.00,LWC V2.00 B2112,2013-03-10 21:10:00,
2013-03-10 17:15:00,50.1,27.3,30.22,South,172,2.0,5.0,41,0.00,,,0.00,LWC V2.00 B2112,2013-03-10 21:15:00,
2013-03-10 17:20:00,49.9,27.1,30.22,South,175,3.0,5.0,41,0.00,,,0.00,LWC V2.00 B2112,2013-03-10 21:20:00,
2013-03-10 17:25:00,49.6,27.5,30.22,South,169,2.0,5.0,42,0.00,,,0.00,LWC V2.00 B2112,2013-03-10 21:25:00,
2013-03-10 17:30:00,49.4,27.9,30.22,SSW,192,3.0,5.0,43,0.00,,,0.00,LWC V2.00 B2112,2013-03-10 21:30:00,
2013-03-10 17:35:00,49.4,28.4,30.22,South,179,3.0,5.0,44,0.00,,,0.00,LWC V2.00 B2112,2013-03-10 21:35:00,
2013-03-10 17:40:00,49.2,28.2,30.22,South,172,2.0,3.0,44,0.00,,,0.00,LWC V2.00 B2112,2013-03-10 21:40:00,
2013-03-10 17:45:00,49.2,28.2,30.22,SSE,164,3.0,3.0,44,0.00,,,0.00,LWC V2.00 B2112,2013-03-10 21:45:00,
2013-03-10 17:50:00,49.2,28.8,30.22,South,176,3.0,4.0,45,0.00,,,0.00,LWC V2.00 B2112,2013-03-10 21:50:00,
2013-03-10 17:55:00,49.2,28.8,30.22,South,172,2.0,5.0,45,0.00,,,0.00,LWC V2.00 B2112,2013-03-10 21:55:00,
2013-03-10 18:00:00,49.1,28.7,30.21,South,172,3.0,6.0,45,0.00,,,0.00,LWC V2.00 B2112,2013-03-10 22:00:00,
2013-03-10 18:05:00,49.1,28.7,30.21,SSE,160,2.0,5.0,45,0.00,,,0.00,LWC V2.00 B2112,2013-03-10 22:05:00,
2013-03-10 18:10:00,48.9,29.0,30.21,SSE,167,4.0,5.0,46,0.00,,,0.00,LWC V2.00 B2112,2013-03-10 22:10:00,
2013-03-10 18:15:00,48.9,29.0,30.20,South,182,1.0,6.0,46,0.00,,,0.00,LWC V2.00 B2112,2013-03-10 22:15:00,
2013-03-10 18:20:00,48.9,29.6,30.20,SSE,158,1.0,2.0,47,0.00,,,0.00,LWC V2.00 B2112,2013-03-10 22:20:00,
2013-03-10 18:25:00,48.8,30.0,30.20,SSE,167,0.0,1.0,48,0.00,,,0.00,LWC V2.00 B2112,2013-03-10 22:25:00,
2013-03-10 18:30:00,48.5,29.7,30.22,SSE,167,0.0,1.0,48,0.00,,,0.00,LWC V2.00 B2112,2013-03-10 22:30:00,
2013-03-10 18:35:00,48.3,30.0,30.22,SSE,167,0.0,1.0,49,0.00,,,0.00,LWC V2.00 B2112,2013-03-10 22:35:00,
2013-03-10 18:40:00,48.0,29.8,30.22,SSE,167,0.0,0.0,49,0.00,,,0.00,LWC V2.00 B2112,2013-03-10 22:40:00,
2013-03-10 18:45:00,47.7,30.0,30.22,SSE,167,0.0,0.0,50,0.00,,,0.00,LWC V2.00 B2112,2013-03-10 22:45:00,
2013-03-10 18:50:00,47.6,29.9,30.22,SSE,167,0.0,0.0,50,0.00,,,0.00,LWC V2.00 B2112,2013-03-10 22:50:00,
2013-03-10 18:55:00,47.3,30.1,30.22,SSE,167,0.0,0.0,51,0.00,,,0.00,LWC V2.00 B2112,2013-03-10 22:55:00,
2013-03-10 19:00:00,47.0,29.8,30.23,SSE,167,0.0,0.0,51,0.00,,,0.00,LWC V2.00 B2112,2013-03-10 23:00:00,
2013-03-10 19:05:00,46.7,29.5,30.23,SSE,167,1.0,1.0,51,0.00,,,0.00,LWC V2.00 B2112,2013-03-10 23:05:00,
2013-03-10 19:10:00,47.0,29.8,30.23,SSE,167,0.0,1.0,51,0.00,,,0.00,LWC V2.00 B2112,2013-03-10 23:10:00,
2013-03-10 19:15:00,47.3,29.6,30.23,SSE,167,1.0,2.0,50,0.00,,,0.00,LWC V2.00 B2112,2013-03-10 23:15:00,
2013-03-10 19:20:00,47.3,29.6,30.23,South,171,1.0,3.0,50,0.00,,,0.00,LWC V2.00 B2112,2013-03-10 23:20:00,
2013-03-10 19:25:00,47.3,29.6,30.23,South,171,0.0,2.0,50,0.00,,,0.00,LWC V2.00 B2112,2013-03-10 23:25:00,
2013-03-10 19:30:00,47.3,29.6,30.23,South,171,2.0,2.0,50,0.00,,,0.00,LWC V2.00 B2112,2013-03-10 23:30:00,
2013-03-10 19:35:00,47.3,29.1,30.23,South,171,1.0,3.0,49,0.00,,,0.00,LWC V2.00 B2112,2013-03-10 23:35:00,
2013-03-10 19:40:00,47.1,29.4,30.23,South,171,0.0,2.0,50,0.00,,,0.00,LWC V2.00 B2112,2013-03-10 23:40:00,
2013-03-10 19:45:00,47.0,29.3,30.24,South,171,1.0,3.0,50,0.00,,,0.00,LWC V2.00 B2112,2013-03-10 23:45:00,
2013-03-10 19:50:00,47.0,29.3,30.24,South,171,2.0,2.0,50,0.00,,,0.00,LWC V2.00 B2112,2013-03-10 23:50:00,
2013-03-10 19:55:00,46.8,29.2,30.24,South,171,1.0,2.0,50,0.00,,,0.00,LWC V2.00 B2112,2013-03-10 23:55:00,
2013-03-10 20:00:00,46.8,29.2,30.23,South,171,2.0,2.0,50,0.00,,,0.00,LWC V2.00 B2112,2013-03-11 00:00:00,
2013-03-10 20:05:00,46.7,29.1,30.23,South,171,1.0,2.0,50,0.00,,,0.00,LWC V2.00 B2112,2013-03-11 00:05:00,
2013-03-10 20:10:00,46.5,29.4,30.23,South,171,0.0,1.0,51,0.00,,,0.00,LWC V2.00 B2112,2013-03-11 00:10:00,
2013-03-10 20:15:00,46.4,29.3,30.23,South,171,0.0,1.0,51,0.00,,,0.00,LWC V2.00 B2112,2013-03-11 00:15:00,
2013-03-10 20:20:00,46.2,29.1,30.23,South,171,1.0,1.0,51,0.00,,,0.00,LWC V2.00 B2112,2013-03-11 00:20:00,
2013-03-10 20:25:00,46.2,29.1,30.23,South,171,0.0,1.0,51,0.00,,,0.00,LWC V2.00 B2112,2013-03-11 00:25:00,
2013-03-10 20:30:00,46.2,29.1,30.22,South,171,0.0,1.0,51,0.00,,,0.00,LWC V2.00 B2112,2013-03-11 00:30:00,
2013-03-10 20:35:00,46.2,29.1,30.22,South,171,1.0,1.0,51,0.00,,,0.00,LWC V2.00 B2112,2013-03-11 00:35:00,
2013-03-10 20:40:00,46.1,29.5,30.22,South,171,0.0,0.0,52,0.00,,,0.00,LWC V2.00 B2112,2013-03-11 00:40:00,
2013-03-10 20:45:00,46.0,29.8,30.22,South,171,1.0,3.0,53,0.00,,,0.00,LWC V2.00 B2112,2013-03-11 00:45:00,
2013-03-10 20:50:00,46.0,29.8,30.22,SSE,165,3.0,5.0,53,0.00,,,0.00,LWC V2.00 B2112,2013-03-11 00:50:00,
2013-03-10 20:55:00,46.0,30.3,30.22,South,175,3.0,5.0,54,0.00,,,0.00,LWC V2.00 B2112,2013-03-11 00:55:00,
2013-03-10 21:00:00,46.0,30.3,30.22,SSE,162,2.0,3.0,54,0.00,,,0.00,LWC V2.00 B2112,2013-03-11 01:00:00,
2013-03-10 21:05:00,46.0,30.7,30.22,South,174,2.0,3.0,55,0.00,,,0.00,LWC V2.00 B2112,2013-03-11 01:05:00,
2013-03-10 21:10:00,45.8,31.0,30.22,SSE,160,0.0,4.0,56,0.00,,,0.00,LWC V2.00 B2112,2013-03-11 01:10:00,
2013-03-10 21:15:00,45.8,31.0,30.23,South,175,1.0,5.0,56,0.00,,,0.00,LWC V2.00 B2112,2013-03-11 01:15:00,
2013-03-10 21:20:00,45.7,31.3,30.23,South,169,2.0,4.0,57,0.00,,,0.00,LWC V2.00 B2112,2013-03-11 01:20:00,
2013-03-10 21:25:00,45.5,32.0,30.23,South,176,2.0,6.0,59,0.00,,,0.00,LWC V2.00 B2112,2013-03-11 01:25:00,
2013-03-10 21:30:00,45.2,32.1,30.22,South,171,1.0,4.0,60,0.00,,,0.00,LWC V2.00 B2112,2013-03-11 01:30:00,
2013-03-10 21:35:00,45.1,32.9,30.22,SSE,168,3.0,6.0,62,0.00,,,0.00,LWC V2.00 B2112,2013-03-11 01:35:00,
2013-03-10 21:40:00,44.8,33.0,30.22,South,181,3.0,5.0,63,0.00,,,0.00,LWC V2.00 B2112,2013-03-11 01:40:00,
2013-03-10 21:45:00,44.5,33.1,30.23,SSE,167,3.0,6.0,64,0.00,,,0.00,LWC V2.00 B2112,2013-03-11 01:45:00,
2013-03-10 21:50:00,44.3,32.9,30.23,SSE,160,4.0,6.0,64,0.00,,,0.00,LWC V2.00 B2112,2013-03-11 01:50:00,
2013-03-10 21:55:00,44.2,33.2,30.23,South,181,3.0,5.0,65,0.00,,,0.00,LWC V2.00 B2112,2013-03-11 01:55:00,
2013-03-10 22:00:00,43.9,32.9,30.23,SE,124,2.0,5.0,65,0.00,,,0.00,LWC V2.00 B2112,2013-03-11 02:00:00,
2013-03-10 22:05:00,43.8,32.8,30.23,South,172,3.0,5.0,65,0.00,,,0.00,LWC V2.00 B2112,2013-03-11 02:05:00,
2013-03-10 22:10:00,43.6,32.6,30.23,South,171,3.0,5.0,65,0.00,,,0.00,LWC V2.00 B2112,2013-03-11 02:10:00,
2013-03-10 22:15:00,43.3,32.3,30.23,SSE,168,3.0,5.0,65,0.00,,,0.00,LWC V2.00 B2112,2013-03-11 02:15:00,
2013-03-10 22:20:00,43.2,32.2,30.23,South,172,5.0,6.0,65,0.00,,,0.00,LWC V2.00 B2112,2013-03-11 02:20:00,
2013-03-10 22:25:00,43.1,32.1,30.23,SSE,155,5.0,10.0,65,0.00,,,0.00,LWC V2.00 B2112,2013-03-11 02:25:00,
2013-03-10 22:30:00,42.8,31.9,30.23,South,169,5.0,6.0,65,0.00,,,0.00,LWC V2.00 B2112,2013-03-11 02:30:00,
2013-03-10 22:35:00,42.6,32.0,30.23,SSE,167,3.0,8.0,66,0.00,,,0.00,LWC V2.00 B2112,2013-03-11 02:35:00,
2013-03-10 22:40:00,42.3,31.8,30.23,South,176,4.0,4.0,66,0.00,,,0.00,LWC V2.00 B2112,2013-03-11 02:40:00,
2013-03-10 22:45:00,42.2,32.0,30.23,South,176,3.0,4.0,67,0.00,,,0.00,LWC V2.00 B2112,2013-03-11 02:45:00,
2013-03-10 22:50:00,42.1,31.9,30.23,South,175,7.0,7.0,67,0.00,,,0.00,LWC V2.00 B2112,2013-03-11 02:50:00,
2013-03-10 22:55:00,41.9,31.8,30.23,South,174,5.0,6.0,67,0.00,,,0.00,LWC V2.00 B2112,2013-03-11 02:55:00,
2013-03-10 23:00:00,41.9,31.8,30.23,SSE,168,3.0,7.0,67,0.00,,,0.00,LWC V2.00 B2112,2013-03-11 03:00:00,
2013-03-10 23:05:00,41.6,31.8,30.23,SSW,193,5.0,6.0,68,0.00,,,0.00,LWC V2.00 B2112,2013-03-11 03:05:00,
2013-03-10 23:10:00,41.5,31.7,30.23,South,176,3.0,6.0,68,0.00,,,0.00,LWC V2.00 B2112,2013-03-11 03:10:00,
2013-03-10 23:15:00,41.5,31.7,30.23,South,191,6.0,6.0,68,0.00,,,0.00,LWC V2.00 B2112,2013-03-11 03:15:00,
2013-03-10 23:20:00,41.3,31.9,30.23,SSE,167,0.0,2.0,69,0.00,,,0.00,LWC V2.00 B2112,2013-03-11 03:20:00,
2013-03-10 23:25:00,41.3,31.9,30.23,SSE,167,2.0,3.0,69,0.00,,,0.00,LWC V2.00 B2112,2013-03-11 03:25:00,
2013-03-10 23:30:00,41.2,32.2,30.23,SSE,167,2.0,2.0,70,0.00,,,0.00,LWC V2.00 B2112,2013-03-11 03:30:00,
2013-03-10 23:35:00,41.1,32.1,30.23,SSE,167,1.0,2.0,70,0.00,,,0.00,LWC V2.00 B2112,2013-03-11 03:35:00,
2013-03-10 23:40:00,41.1,32.1,30.23,South,178,2.0,3.0,70,0.00,,,0.00,LWC V2.00 B2112,2013-03-11 03:40:00,
2013-03-10 23:45:00,40.9,31.9,30.24,SSE,168,2.0,4.0,70,0.00,,,0.00,LWC V2.00 B2112,2013-03-11 03:45:00,
2013-03-10 23:50:00,40.9,31.9,30.24,South,174,2.0,3.0,70,0.00,,,0.00,LWC V2.00 B2112,2013-03-11 03:50:00,
2013-03-10 23:55:00,40.8,32.1,30.24,South,171,4.0,5.0,71,0.00,,,0.00,LWC V2.00 B2112,2013-03-11 03:55:00,